Preview of NWS' New Version of Forecast
This preview is not operational and should not be used for support decisions.

Regional Weather Roundup (RWR)

Issued by National Weather Service (NWS)

                            
000
ASUS46 KSEW 202210
RWRWA 

WASHINGTON REGIONAL WEATHER ROUNDUP
NATIONAL WEATHER SERVICE SEATTLE WA
300 PM PDT SAT JUL 20 2019

NOTE:"FAIR" INDICATES FEW OR NO CLOUDS BELOW 12,000 FEET WITH NO 
SIGNIFICANT WEATHER AND/OR OBSTRUCTIONS TO VISIBILITY.

WAZ507-509-555>559-202300-
SEATTLE, TACOMA, EVERETT, AND VICINITY
  
CITY           SKY/WX    TMP DP  RH WIND       PRES   REMARKS
EVERETT        SUNNY     73  49  42 NW7       30.09F                  
BOEING FIELD   SUNNY     76  47  35 NW9       30.05F                  
RENTON         SUNNY     78  51  38 NW12      30.04F VSB 1/4          
SEATAC AIRPORT MOSUNNY   78  49  35 N12       30.07F                  
JBLM-MCCHORD   SUNNY     76  55  46 N9        30.06F                  
PUYALLUP       FAIR      79  50  36 VRB3      30.06F                  
BREMERTON      SUNNY     76  49  38 E10G17    30.06F                  
JBLM-FT LEWIS  SUNNY     76  53  44 N8        30.05F                  
TACOMA NARROWS SUNNY     73  46  38 NE9       30.06F                  
$$
 
WAZ001-503-506-510-514-515-202300-
NORTH INTERIOR
  
CITY           SKY/WX    TMP DP  RH WIND       PRES   REMARKS
BELLINGHAM     MOSUNNY   73  53  49 W9        30.08F                  
FRIDAY HARBOR  SUNNY     74  49  41 N7        30.09F                  
EASTSOUND      SUNNY     66  54  63 NW7       30.09F                  
PORT ANGELES   SUNNY     71  46  40 VRB6      30.10F                  
EDIZ HOOK      FAIR      64  53  69 SE5       30.09F                  
PORT TOWNSEND  FAIR      73  48  40 NW7       30.08F                  
NAS WHIDBEY    MOSUNNY   68  53  58 W10       30.13F                  
ARLINGTON      SUNNY     77  54  44 W8        30.07F                  
BURLINGTON     SUNNY     75  54  46 NW10      30.08F                  
$$
 
WAZ020-022-039-040-504-511-512-202300-
SOUTHWEST INTERIOR
  
CITY           SKY/WX    TMP DP  RH WIND       PRES   REMARKS
SHELTON        SUNNY     80  49  33 VRB3      30.02F                  
OLYMPIA        SUNNY     77  47  34 N8        30.05F                  
CHEHALIS       FAIR      79  52  38 N8        30.04F                  
KELSO          SUNNY     82  51  34 N10       30.01F                  
VANCOUVER      SUNNY     82  49  31 W13       29.97F                  
SCAPPOOSE, OR  SUNNY     84  48  28 N8        29.97F                  
PORTLAND, OR   MOSUNNY   82  50  32 W14       29.97F                  
$$
 
WAZ021-516-517-202300-
WASHINGTON COAST
  
CITY           SKY/WX    TMP DP  RH WIND       PRES   REMARKS
FORKS          SUNNY     72  51  47 W9        30.08F                  
HOQUIAM        SUNNY     69  55  60 NW10      30.07F                  
ASTORIA, OR    SUNNY     70  57  63 NW21      30.03F                  
$$
 
WAZ019-023-024-040-567>569-202300-
CASCADE MOUNTAINS AND COLUMBIA GORGE
  
CITY           SKY/WX    TMP DP  RH WIND       PRES   REMARKS
STAMPEDE PASS  SUNNY     72  39  30 VRB5      30.14F                  
TROUTDALE, OR  SUNNY     84  53  34 VRB5      29.96F                  
HOOD RIVER, OR CLEAR     82  34  17 N3        30.00F                  
THE DALLES, OR SUNNY     87  37  17 E9        29.98F                  
$$

WAZ026-027-041>044-520-521-202300-
EAST SLOPES
  
CITY           SKY/WX    TMP DP  RH WIND       PRES   REMARKS
OMAK           PTSUNNY   81  39  22 VRB3      30.06S                  
WENATCHEE      SUNNY     81  33  17 SW13      30.03F                  
ELLENSBURG     SUNNY     83  33  16 VRB5      30.06F                  
YAKIMA         SUNNY     81  38  21 VRB3      30.05F                  
SUNNYSIDE ARPT CLEAR     80  44  27 SW7       30.03F                  
YAKIMA TC      FAIR      80  35  19 W10       30.03F                  
$$

WAZ028-034-035-202300-
COLUMBIA BASIN
  
CITY           SKY/WX    TMP DP  RH WIND       PRES   REMARKS
EPHRATA        SUNNY     81  33  17 SE6       30.04F                  
MOSES LAKE     SUNNY     83  35  18 SW3       30.05F                  
PASCO          SUNNY     86  37  17 NE7       30.02F                  
RICHLAND ARPT  CLEAR     85  31  14 NE8       30.03S                  
HERMISTON, OR  SUNNY     86  36  16 N8        30.01F                  
$$

WAZ036>038-202300-
NORTHEAST WASHINGTON
  
CITY           SKY/WX    TMP DP  RH WIND       PRES   REMARKS
SPOKANE GEIGER PTSUNNY   75  36  24 N15G21    30.09F                  
SPOKANE FELTS  CLOUDY    74  38  27 VRB7      30.09S                  
FAIRCHILD AFB  MOSUNNY   76  34  22 N12       30.10S                  
COEURDALENE,ID MOSUNNY   77  35  21 W6        30.09F                  
DEER PARK      PTSUNNY   74  38  27 N12G17    30.10S                  
$$

WAZ029>033-202300-
SOUTHEAST WASHINGTON
  
CITY           SKY/WX    TMP DP  RH WIND       PRES   REMARKS
PULLMAN        SUNNY     76  33  21 VRB3      30.11S                  
LEWISTON, ID   SUNNY     82  35  18 VRB3      30.04F                  
WALLA WALLA    SUNNY     83  31  15 NE3       30.02S                  
PENDLETON, OR  SUNNY     83  31  15 CALM      30.02F                  
$$